903  
ASUS46 KSGX 272211  
RWRSGX  
 
SAN DIEGO HOURLY WEATHER ROUNDUP  
NATIONAL WEATHER SERVICE SAN DIEGO CA  
300 PM PDT THU APR 27 2017  
 
NOTE: "FAIR" INDICATES FEW OR NO CLOUDS BELOW 12,000 FEET WITH NO  
SIGNIFICANT WEATHER AND/OR S TO VISIBILITY
.  
 
CAZ042-043-060-061-PZZ750-775-272300-  
 
GREATER SAN DIEGO AREA  
 
CITY SKY/WX TMP DP RH WIND PRES REMARKS
 
SAN DIEGO AP PTSUNNY 69 58 67 W8 29.81F  
NATIONAL CITY N/A 69 61 75 NW5 29.80S  
CHULA VISTA N/A 68 61 78 W6 29.72S  
IMPERIAL BEACH CLOUDY 66 57 72 W10 29.81S  
BROWN FIELD MOSUNNY 67 57 70 W9 29.80S  
MIRAMAR MCAS PTSUNNY 72 55 55 W7 29.79F  
MONTGOMERY FLD MOSUNNY 68 55 63 W9 29.79F  
 

 
 
NORTH SAN DIEGO COUNTY  
 
CITY SKY/WX TMP DP RH WIND PRES REMARKS
 
CAMP PENDLETON PTSUNNY 70 58 65 SW9G17 29.77F  
OCEANSIDE AP PTSUNNY 69 59 70 W13 29.77F  
OCEANSIDE HBR N/A 64 59 83 W10 29.81F  
VISTA N/A 69 59 69 W2 29.76F  
CARLSBAD PTSUNNY 66 58 75 W9 29.78F  
DEL MAR N/A 69 60 73 W2 29.81F  
LA JOLLA SCRIP N/A 64 59 85 W6 29.79F  
FALLBROOK N/A 72 60 66 S7 29.75F  
ESCONDIDO N/A 74 58 57 W5 29.77F  
SAN MARCOS N/A 70 58 66 W8 29.79F  
POWAY N/A 74 59 59 SW6 29.79F  
 

 
 
EAST SAN DIEGO COUNTY  
 
CITY SKY/WX TMP DP RH WIND PRES REMARKS
 
RAMONA PTSUNNY 72 56 57 VRB5G17 29.78F  
SANTEE LAKES N/A 71 59 64 SW7 29.77S  
LA MESA N/A 70 57 63 W9 29.72S  
JAMUL N/A 71 59 64 CALM 29.77F  
DESCANSO N N/A 67 53 61 W2 29.69F  
MT. LAGUNA OBS N/A 64 34 33 W3 29.52F  
CAMPO N/A 75 48 38 SW12G26 29.76S  
 

 
 
ORANGE COUNTY AND THE LOS ANGELES BASIN  
 
CITY SKY/WX TMP DP RH WIND PRES REMARKS
 
JOHN WAYNE AP PTSUNNY 71 54 54 S13 29.76F  
LAGUNA BEACH N/A 67 59 74 S6 29.73F  
LAKE FOREST FR N/A 76 54 46 W3 29.66S  
HUNTINGTON BCH N/A 71 59 66 W3 29.77F  
LOS ALAMITOS PTSUNNY 73 56 54 S6 29.74F  
FULLERTON PTSUNNY 75 54 47 S7 29.73F  
LONG BEACH PTSUNNY 79 48 33 W15G21 29.73F  
L.A. AP PTSUNNY 67 53 61 W21 29.76F  
L.A. DOWNTOWN PTSUNNY 84 40 21 NW9 29.73F  
 

 
 
THE INLAND EMPIRE  
 
CITY SKY/WX TMP DP RH WIND PRES REMARKS
 
CORONA PTSUNNY 78 54 43 W13G18 29.74F  
CHINO PTSUNNY 80 53 39 W9 29.75F  
ONTARIO CLOUDY 76 51 41 W10G21 29.74F  
SAN BERNARDINO CLOUDY 81 46 30 W9 29.74F  
RIVERSIDE AP CLOUDY 77 54 44 W10G20 29.74F  
MORENO VALLEY N/A 78 57 47 SW7 27.88F  
MARCH ARB PTSUNNY 77 50 38 W13 29.75F  
HORSETHIEF CYN N/A 80 45 28 CALM 29.74F  
PERRIS N/A 76 53 44 SW6 29.76F  
HEMET EAST N/A 77 43 29 W5 29.79F  
FRENCH VALLEY FAIR 73 54 49 SW8 29.76F  
TEMECULA N/A 75 58 56 SW8 29.79F  
 

 
 
SAN BERNARDINO AND RIVERSIDE COUNTY MOUNTAINS  
 
CITY SKY/WX TMP DP RH WIND PRES REMARKS
 
BIG BEAR AP PTSUNNY 59 28 31 W7 29.93F  
ANGELUS OAKS N/A 63 42 47 CALM 29.59F  
PINE COVE N/A 61 42 49 NW3 29.70F  
 

 
 
SOUTHERN DESERT INCLUDING THE COACHELLA VALLEY  
 
CITY SKY/WX TMP DP RH WIND PRES REMARKS
 
PALM SPRINGS CLOUDY 92 41 17 NW14 29.63F  
PALM DESERT N/A 93 44 18 CALM 29.50F  
THERMAL CLOUDY 93 35 13 VRB5 29.57F  
BLYTHE PTSUNNY 92 38 15 VRB5 29.59F  
IMPERIAL AP MOSUNNY 92 39 15 NW5 29.59F  
EL CENTRO NAS PTSUNNY 93 34 12 E7 29.61F  
YUMA AZ PTSUNNY 92 38 15 W12 29.60  
MEXICALI PTSUNNY 91 30 11 NW9 29.61F  
 

 
 
UPPER DESERT  
 
CITY SKY/WX TMP DP RH WIND PRES REMARKS
 
VICTORVILLE AP CLOUDY 66 36 32 W23G31 29.82F  
HESPERIA N/A 69 37 30 NW7 29.84F  
PALMDALE CLOUDY 65 43 44 W17 29.89R  
LANCASTER CLOUDY 65 44 46 W32G41 29.84R  
EDWARDS AFB PTSUNNY 69 41 36 W36G48 29.76S  
DAGGETT PTSUNNY 78 37 22 W20G29 29.72F  
29 PALMS N PTSUNNY 82 32 16 W20G26 29.78F  
NEEDLES PTSUNNY 90 26 10 N7 29.60F  
 

 
 
REGIONAL REPORTS  
 
CITY SKY/WX TMP DP RH WIND PRES REMARKS
 
SANTA BARBARA PTSUNNY 72 51 47 SW17G26 29.77F  
SANDBERG CLOUDY 54 45 71 MISG 29.96F  
LAS VEGAS NV PTSUNNY 83 17 8 N14G32 29.65F  
PHOENIX AZ PTSUNNY 88 39 17 W12G22 29.59F  
TIJUANA CLOUDY 66 54 63 W10 29.82F  
ENSENADA NW N/A 66 32 27 W12 29.76F  
 

 
 
OFFSHORE ISLANDS  
 
CITY SKY/WX TMP DP RH WIND PRES REMARKS
 
CATALINA ARPT PTSUNNY 63 53 70 W12 29.82F  
SAN CLEMENTE I PTSUNNY 65 50 58 W23G29 29.81F  
SAN NICOLAS IS PTSUNNY 60 51 72 NW33G45 29.83F  
 

 
 
MARINE AND OFFSHORE BUOY REPORTS  
 
STATION/POSITION SKY/WX TEMP WIND PRES VSBY SWELL
 
AIR SEA DIR/SP/G HT/PER/DIR  
(F) (DEG/KT/KT) (MB) (MI) (FT/S/D)  
TANNER BANKS 58 57 310/ 25/ 31 1010.3F 7/330/ 9  
S CLEMENTE BASIN 60 63 290/ 17/ 21 1009.3F 7/280/ 9  
SAN NICOLAS IS. 53 N/A 5/300/11  
SO. S. ROSA ISLA 54 52 300/ 27/ 33 1011.4F 7/300/ 9  
W. S. BARBARA CH 54 50 320/ 21/ 27 1012.8R 7/310/ 8  
M. S. BARBARA CH 280/ 23/ 29 1009.8S  
S. MONICA BASIN 61 62 280/ 12/ 16 1008.5  
S PEDRO CHANNEL 60 N/A 2/270/11  
CMP PENDLETON NS 65 N/A 2/210/14  
OCEANSIDE OFFSHR 64 N/A 2/190/14  
TORREY PINES OTR 64 N/A 2/190/13  
POINT LOMA SOUTH 63 N/A 3/250/11  
 

 
 
 
 
CLICK HERE TO GO TO PREVIOUS BULLETINS.

The Nexlab CA Page Main Text Page